Corning, AR

5:20 AM CST on February 22, 2017 (GMT -0600)
Corning

Weather History for K4M9 - February, 2013

Change the Weather History Date:

Tuesday, February 19, 2013

  Actual Average (KARG) Record (KARG)
Temperature  
Mean Temperature 40 °F -  
Max Temperature 48 °F 49 °F 71 °F (2017)
Min Temperature 32 °F 34 °F 8 °F (2015)
Degree Days  
Heating Degree Days 25    
Moisture  
Dew Point 22 °F    
Average Humidity 53    
Maximum Humidity 76    
Minimum Humidity 29    
Precipitation  
Precipitation 0.00 in - - ()
Sea Level Pressure  
Sea Level Pressure 30.20 in    
Wind  
Wind Speed 13 mph (WNW)    
Max Wind Speed 23 mph    
Max Gust Speed 32 mph    
Visibility 10 miles    
Events      
Averages and records for this station are not official NWS values.
T = Trace of Precipitation, MM = Missing Value Source: NWS Daily Summary

Daily Weather History Graph

Daily Weather History Graph

Search for Another Location

Airport or City:

Trip Planner

Search our weather history database for the weather conditions in past years. The results will help you decide how hot, cold, wet, or windy it might be!

Date:

Astronomy

Feb. 19, 2013 Rise Set
Actual Time 6:45 AM CST 5:47 PM CST
Civil Twilight 6:19 AM CST 6:14 PM CST
Nautical Twilight 5:49 AM CST 6:44 PM CST
Astronomical Twilight 5:19 AM CST 7:13 PM CST
Moon 12:24 PM CST (2/19) 2:12 AM CST (2/19)
Length of Visible Light 11h 54m
Length of Day
11h 02m
Waxing Gibbous, 67% of the Moon is Illuminated
Feb 19
Waxing Gibbous
Feb 25
Full
Mar 4
Last Quarter
Mar 11
New
Mar 19
First Quarter

Hourly Weather History & Observations

Time (CST) Temp. Windchill Dew Point Humidity Pressure Visibility Wind Dir Wind Speed Gust Speed Precip Events Conditions
12:15 AM 42.8 °F 36.2 °F 35.6 °F 76% 29.99 in 10.0 mi NW 12.7 mph 19.6 mph N/A   Overcast
12:55 AM 39.2 °F 32.0 °F 32.0 °F 75% 30.01 in 10.0 mi NW 11.5 mph 19.6 mph N/A   Scattered Clouds
1:15 AM 39.2 °F 30.2 °F 28.4 °F 65% 30.03 in 10.0 mi NW 17.3 mph 27.6 mph N/A   Scattered Clouds
1:35 AM 37.4 °F 28.5 °F 26.6 °F 65% 30.04 in 10.0 mi NW 15.0 mph 24.2 mph N/A   Partly Cloudy
1:55 AM 37.4 °F 27.8 °F 26.6 °F 65% 30.05 in 10.0 mi NW 17.3 mph 23.0 mph N/A   Clear
2:15 AM 37.4 °F 29.8 °F 28.4 °F 70% 30.06 in 10.0 mi NW 11.5 mph - N/A   Clear
2:35 AM 35.6 °F 27.1 °F 28.4 °F 75% 30.06 in 10.0 mi NW 12.7 mph - N/A   Clear
2:55 AM 35.6 °F 29.9 °F 28.4 °F 75% 30.06 in 10.0 mi West 6.9 mph - N/A   Clear
3:15 AM 35.6 °F 25.5 °F 26.6 °F 70% 30.07 in 10.0 mi WNW 17.3 mph - N/A   Clear
3:35 AM 35.6 °F 25.5 °F 26.6 °F 70% 30.08 in 10.0 mi NW 17.3 mph 32.2 mph N/A   Clear
4:15 AM 33.8 °F 23.9 °F 26.6 °F 75% 30.10 in 10.0 mi WNW 15.0 mph - N/A   Clear
4:35 AM 33.8 °F 23.9 °F 24.8 °F 70% 30.10 in 10.0 mi WNW 15.0 mph - N/A   Clear
4:55 AM 32.0 °F 22.1 °F 24.8 °F 75% 30.11 in 10.0 mi WNW 13.8 mph 19.6 mph N/A   Clear
5:15 AM 32.0 °F 22.5 °F 23.0 °F 69% 30.12 in 10.0 mi WNW 12.7 mph - N/A   Clear
5:35 AM 32.0 °F 22.5 °F 23.0 °F 69% 30.13 in 10.0 mi WNW 12.7 mph - N/A   Clear
6:15 AM 32.0 °F 23.0 °F 23.0 °F 69% 30.15 in 10.0 mi WNW 11.5 mph - N/A   Clear
6:35 AM 32.0 °F 23.0 °F 23.0 °F 69% 30.15 in 10.0 mi West 11.5 mph - N/A   Clear
6:55 AM 32.0 °F 22.5 °F 23.0 °F 69% 30.16 in 10.0 mi West 12.7 mph - N/A   Clear
7:15 AM 32.0 °F 23.0 °F 23.0 °F 69% 30.17 in 10.0 mi West 11.5 mph - N/A   Clear
7:55 AM 32.0 °F 22.1 °F 23.0 °F 69% 30.18 in 10.0 mi West 13.8 mph - N/A   Clear
8:15 AM 33.8 °F 24.3 °F 23.0 °F 65% 30.19 in 10.0 mi West 13.8 mph 19.6 mph N/A   Clear
8:35 AM 33.8 °F 23.9 °F 21.2 °F 60% 30.20 in 10.0 mi West 15.0 mph 19.6 mph N/A   Clear
8:55 AM 35.6 °F 26.2 °F 21.2 °F 56% 30.21 in 10.0 mi WNW 15.0 mph 20.7 mph N/A   Clear
9:15 AM 35.6 °F 25.5 °F 23.0 °F 60% 30.21 in 10.0 mi WNW 17.3 mph 24.2 mph N/A   Clear
9:35 AM 37.4 °F 28.5 °F 23.0 °F 56% 30.22 in 10.0 mi WNW 15.0 mph 23.0 mph N/A   Clear
9:55 AM 37.4 °F 29.3 °F 21.2 °F 52% 30.22 in 10.0 mi West 12.7 mph 21.9 mph N/A   Clear
10:15 AM 39.2 °F 31.2 °F 23.0 °F 52% 30.22 in 10.0 mi West 13.8 mph - N/A   Clear
10:35 AM 39.2 °F 30.8 °F 23.0 °F 52% 30.23 in 10.0 mi West 15.0 mph 20.7 mph N/A   Clear
10:55 AM 41.0 °F 33.1 °F 23.0 °F 49% 30.23 in 10.0 mi WNW 15.0 mph - N/A   Clear
11:15 AM 41.0 °F 32.5 °F 23.0 °F 49% 30.23 in 10.0 mi WNW 17.3 mph 27.6 mph N/A   Clear
11:35 AM 41.0 °F 33.5 °F 23.0 °F 49% 30.23 in 10.0 mi WNW 13.8 mph 24.2 mph N/A   Clear
11:55 AM 42.8 °F 35.1 °F 23.0 °F 46% 30.23 in 10.0 mi West 16.1 mph 23.0 mph N/A   Clear
12:15 PM 44.6 °F 37.4 °F 23.0 °F 43% 30.22 in 10.0 mi WNW 16.1 mph 21.9 mph N/A   Clear
12:55 PM 44.6 °F 37.4 °F 21.2 °F 39% 30.22 in 10.0 mi WNW 16.1 mph 25.3 mph N/A   Unknown
1:15 PM 46.4 °F 39.2 °F 21.2 °F 37% 30.21 in 10.0 mi West 18.4 mph 29.9 mph N/A   Clear
1:35 PM 46.4 °F 38.7 °F 19.4 °F 34% 30.21 in 10.0 mi West 20.7 mph 26.5 mph N/A   Clear
1:55 PM 46.4 °F 39.8 °F 17.6 °F 32% 30.21 in 10.0 mi West 16.1 mph 25.3 mph N/A   Clear
2:15 PM 46.4 °F 39.5 °F 17.6 °F 32% 30.21 in 10.0 mi WNW 17.3 mph 25.3 mph N/A   Clear
2:35 PM 46.4 °F 39.2 °F 17.6 °F 32% 30.21 in 10.0 mi West 18.4 mph 24.2 mph N/A   Clear
2:55 PM 46.4 °F 38.7 °F 17.6 °F 32% 30.21 in 10.0 mi WNW 20.7 mph 28.8 mph N/A   Clear
3:15 PM 48.2 °F - 19.4 °F 32% 30.22 in 10.0 mi WNW 21.9 mph 27.6 mph N/A   Clear
3:35 PM 46.4 °F 38.3 °F 17.6 °F 32% 30.22 in 10.0 mi WNW 23.0 mph - N/A   Clear
3:55 PM 46.4 °F 40.4 °F 17.6 °F 32% 30.22 in 10.0 mi WNW 13.8 mph 23.0 mph N/A   Clear
4:15 PM 46.4 °F 40.1 °F 15.8 °F 29% 30.22 in 10.0 mi WNW 15.0 mph 27.6 mph N/A   Clear
4:35 PM 46.4 °F 40.4 °F 17.6 °F 32% 30.22 in 10.0 mi WNW 13.8 mph 20.7 mph N/A   Clear
4:55 PM 46.4 °F 39.5 °F 17.6 °F 32% 30.22 in 10.0 mi WNW 17.3 mph 25.3 mph N/A   Clear
5:15 PM 44.6 °F 38.4 °F 19.4 °F 37% 30.22 in 10.0 mi WNW 12.7 mph - N/A   Clear
6:15 PM 39.2 °F 33.0 °F 19.4 °F 45% 30.22 in 10.0 mi NW 9.2 mph - N/A   Clear
6:35 PM 37.4 °F 30.8 °F 23.0 °F 56% 30.24 in 10.0 mi WNW 9.2 mph - N/A   Clear
6:55 PM 37.4 °F 30.8 °F 19.4 °F 48% 30.24 in 10.0 mi WNW 9.2 mph - N/A   Clear
7:15 PM 37.4 °F 31.4 °F 19.4 °F 48% 30.25 in 10.0 mi WNW 8.1 mph - N/A   Clear
7:35 PM 35.6 °F 30.7 °F 23.0 °F 60% 30.26 in 10.0 mi West 5.8 mph - N/A   Clear
7:55 PM 33.8 °F 27.7 °F 23.0 °F 65% 30.28 in 10.0 mi WNW 6.9 mph - N/A   Clear
8:15 PM 35.6 °F 29.2 °F 19.4 °F 52% 30.28 in 10.0 mi WNW 8.1 mph - N/A   Clear
8:35 PM 35.6 °F 29.2 °F 17.6 °F 48% 30.28 in 10.0 mi NW 8.1 mph - N/A   Clear
8:55 PM 35.6 °F 29.2 °F 15.8 °F 44% 30.28 in 10.0 mi NW 8.1 mph - N/A   Clear
9:15 PM 35.6 °F 29.2 °F 15.8 °F 44% 30.28 in 10.0 mi NNW 8.1 mph - N/A   Clear
9:35 PM 35.6 °F 29.2 °F 15.8 °F 44% 30.28 in 10.0 mi NNW 8.1 mph - N/A   Clear
9:55 PM 33.8 °F 27.7 °F 17.6 °F 52% 30.28 in 10.0 mi NW 6.9 mph - N/A   Clear
10:15 PM 33.8 °F 27.7 °F 15.8 °F 48% 30.29 in 10.0 mi NNW 6.9 mph - N/A   Clear
10:35 PM 33.8 °F 27.0 °F 15.8 °F 48% 30.30 in 10.0 mi NW 8.1 mph - N/A   Clear
10:55 PM 32.0 °F 25.6 °F 15.8 °F 51% 30.30 in 10.0 mi NW 6.9 mph - N/A   Clear
11:15 PM 32.0 °F 26.4 °F 17.6 °F 55% 30.31 in 10.0 mi NNW 5.8 mph - N/A   Clear
11:35 PM 32.0 °F 25.6 °F 17.6 °F 55% 30.31 in 10.0 mi North 6.9 mph - N/A   Clear
11:55 PM 32.0 °F 25.6 °F 15.8 °F 51% 30.32 in 10.0 mi North 6.9 mph - N/A   Clear